Change the Weather History Date:

Sunday, May 27, 2012

  Actual Average Record
Temperature  
Mean Temperature 84 °F -  
Max Temperature 93 °F 74 °F 93 °F (2012)
Min Temperature 74 °F 54 °F 48 °F (1997)
Cooling Degree Days 18    
Growing Degree Days 34 (Base 50)    
Moisture  
Dew Point 63 °F    
Average Humidity 53    
Maximum Humidity 75    
Minimum Humidity 36    
Precipitation  
Precipitation 0.00 in - - ()
Sea Level Pressure  
Sea Level Pressure 29.66 in    
Wind  
Wind Speed 15 mph (SSE)    
Max Wind Speed 23 mph    
Max Gust Speed 36 mph    
Visibility 10 miles    
Events      
Averages and records for this station are not official NWS values.
T = Trace of Precipitation, MM = Missing Value Source: NWS Daily Summary

Daily Weather History Graph

Daily Weather History Graph

Search for Another Location

Airport or City:

Trip Planner

Search our weather history database for the weather conditions in past years. The results will help you decide how hot, cold, wet, or windy it might be!

Date:

Astronomy

May. 27, 2012 Rise Set
Actual Time 5:55 AM CDT 8:46 PM CDT
Civil Twilight 5:23 AM CDT 9:19 PM CDT
Nautical Twilight 4:42 AM CDT 10:00 PM CDT
Astronomical Twilight 3:54 AM CDT 10:47 PM CDT
Moon 12:04 PM CDT (5/27) 12:52 AM CDT (5/27)
Length of Visible Light 15h 55m
Length of Day
14h 50m
Waxing Crescent, 38% of the Moon is Illuminated
May 27
Waxing Crescent
May 28
First Quarter
Jun 4
Full
Jun 11
Last Quarter
Jun 19
New

Hourly Weather History & Observations

Time (CDT) Temp. Heat Index Dew Point Humidity Pressure Visibility Wind Dir Wind Speed Gust Speed Precip Events Conditions
12:55 AM 78.4 °F - 68.2 °F 71% 29.73 in 10.0 mi SSE 11.5 mph - N/A   Clear
1:55 AM 78.3 °F - 66.4 °F 67% 29.73 in 10.0 mi South 12.7 mph 21.9 mph N/A   Mostly Cloudy
2:55 AM 77.0 °F - 66.4 °F 70% 29.73 in 10.0 mi South 13.8 mph 19.6 mph N/A   Scattered Clouds
3:55 AM 75.7 °F - 66.2 °F 72% 29.74 in 10.0 mi South 10.4 mph 20.7 mph N/A   Clear
4:55 AM 74.3 °F - 66.0 °F 75% 29.73 in 10.0 mi SSE 12.7 mph - N/A   Clear
5:55 AM 74.1 °F - 65.5 °F 74% 29.72 in 10.0 mi South 10.4 mph - N/A   Clear
6:55 AM 74.8 °F - 65.5 °F 73% 29.73 in 10.0 mi South 12.7 mph - N/A   Clear
7:55 AM 76.6 °F - 65.5 °F 68% 29.73 in 10.0 mi South 13.8 mph - N/A   Clear
8:55 AM 78.4 °F - 65.5 °F 64% 29.73 in 10.0 mi SSE 15.0 mph 24.2 mph N/A   Clear
9:55 AM 83.1 °F 85.0 °F 65.5 °F 55% 29.70 in 10.0 mi SSE 18.4 mph 23.0 mph N/A   Clear
10:55 AM 86.2 °F 87.6 °F 64.6 °F 48% 29.69 in 10.0 mi South 18.4 mph 26.5 mph N/A   Partly Cloudy
11:55 AM 90.0 °F 91.7 °F 64.9 °F 43% 29.67 in 10.0 mi South 20.7 mph 24.2 mph N/A   Clear
12:55 PM 91.4 °F 93.2 °F 64.9 °F 41% 29.65 in 10.0 mi South 20.7 mph 26.5 mph N/A   Clear
1:55 PM 91.8 °F 93.0 °F 63.7 °F 39% 29.64 in 10.0 mi South 19.6 mph 26.5 mph N/A   Partly Cloudy
2:55 PM 92.8 °F 93.9 °F 63.3 °F 37% 29.62 in 10.0 mi South 18.4 mph 29.9 mph N/A   Scattered Clouds
3:55 PM 93.0 °F 94.2 °F 63.1 °F 37% 29.61 in 10.0 mi SSE 19.6 mph 28.8 mph N/A   Scattered Clouds
4:55 PM 92.5 °F 93.3 °F 62.4 °F 37% 29.60 in 10.0 mi South 21.9 mph 32.2 mph N/A   Partly Cloudy
5:55 PM 91.4 °F 91.4 °F 61.3 °F 36% 29.58 in 10.0 mi SSE 21.9 mph 31.1 mph N/A   Scattered Clouds
6:55 PM 88.2 °F 87.3 °F 58.5 °F 37% 29.57 in 10.0 mi SSE 18.4 mph 29.9 mph N/A   Clear
7:55 PM 84.7 °F 84.2 °F 58.3 °F 41% 29.57 in 10.0 mi SSE 20.7 mph 32.2 mph N/A   Clear
8:55 PM 83.5 °F 83.4 °F 59.4 °F 44% 29.56 in 10.0 mi SSE 20.7 mph 35.7 mph N/A   Clear
9:55 PM 82.2 °F 82.3 °F 58.6 °F 45% 29.58 in 10.0 mi South 23.0 mph 31.1 mph N/A   Partly Cloudy
10:55 PM 81.0 °F 81.2 °F 58.6 °F 46% 29.60 in 10.0 mi South 17.3 mph 25.3 mph N/A   Clear
11:55 PM 79.7 °F - 58.8 °F 49% 29.61 in 10.0 mi SSE 13.8 mph 21.9 mph N/A   Partly Cloudy